Location: Newark
(42.7133°N, 87.7910°W)
Time: 10:34:20
(UTC+00:00)

Vanguard 1 Rocket - Pass Details

Date: 22 September 2019
Orbit: 650 x 4226 km, 34.3° (Epoch: 20 October)

Event Time Altitude Azimuth Distance (km) Brightness Sun altitude
Rises 01:43:59 0° 261° (W) 7,885 13.2 -21.2°
Reaches altitude 10° 01:50:06 10° 259° (W) 6,420 12.5 -22.2°
Maximum altitude 02:07:41 59° 187° (S) 2,364 9.2 -25.2°
Enters shadow 02:11:41 40° 131° (SE) 2,411 9.0 -25.8°
